Stündliche Wetter Labednik

Heute, 16 Mai, Sonntag

Zeit Temperatur Niederschläge Wind Luftdruck Luftfeuchtigkeit
00:00 +8°C° 0 mm 2 m/S 749 mmHg 94%
01:00 +8°C° 0 mm 3 m/S 749 mmHg 94%
02:00 +8°C° 0 mm 3 m/S 749 mmHg 93%
03:00 +8°C° 0 mm 3 m/S 748 mmHg 93%
04:00 +8°C° 0 mm 3 m/S 748 mmHg 92%
05:00 +10°C° 0 mm 3 m/S 748 mmHg 88%
06:00 +11°C° 0 mm 4 m/S 748 mmHg 85%
07:00 +13°C° 0 mm 5 m/S 748 mmHg 81%
08:00 +13°C° 0.2 mm 5 m/S 748 mmHg 81%
09:00 +14°C° 0.2 mm 5 m/S 748 mmHg 81%
10:00 +15°C° 0.2 mm 4 m/S 748 mmHg 81%
11:00 +15°C° 0.5 mm 4 m/S 748 mmHg 79%
12:00 +17°C° 0.5 mm 4 m/S 747 mmHg 76%
13:00 +18°C° 0.5 mm 4 m/S 747 mmHg 74%
14:00 +18°C° 0.8 mm 4 m/S 747 mmHg 77%
15:00 +17°C° 0.8 mm 3 m/S 747 mmHg 81%
16:00 +16°C° 0.8 mm 3 m/S 747 mmHg 85%
17:00 +16°C° 0.4 mm 2 m/S 747 mmHg 86%
18:00 +15°C° 0.4 mm 2 m/S 746 mmHg 87%
19:00 +14°C° 0.4 mm 1 m/S 746 mmHg 89%
20:00 +14°C° 0 mm 1 m/S 746 mmHg 89%
21:00 +13°C° 0 mm 1 m/S 746 mmHg 90%
22:00 +13°C° 0 mm 1 m/S 746 mmHg 91%
23:00 +13°C° 0.6 mm 1 m/S 746 mmHg 92%

Morgen, 17 Mai, Montag

Zeit Temperatur Niederschläge Wind Luftdruck Luftfeuchtigkeit
00:00 +12°C° 0.6 mm 2 m/S 746 mmHg 94%
01:00 +12°C° 0.6 mm 2 m/S 746 mmHg 96%
02:00 +12°C° 0.2 mm 2 m/S 746 mmHg 96%
03:00 +12°C° 0.2 mm 2 m/S 746 mmHg 95%
04:00 +10°C° 0.2 mm 2 m/S 746 mmHg 95%
05:00 +13°C° 0 mm 2 m/S 747 mmHg 91%
06:00 +14°C° 0 mm 2 m/S 747 mmHg 87%
07:00 +15°C° 0 mm 2 m/S 747 mmHg 83%
08:00 +16°C° 0.1 mm 2 m/S 747 mmHg 76%
09:00 +17°C° 0.1 mm 2 m/S 747 mmHg 69%
10:00 +18°C° 0.1 mm 2 m/S 747 mmHg 63%
11:00 +20°C° 0.1 mm 1 m/S 747 mmHg 62%
12:00 +20°C° 0.1 mm 1 m/S 747 mmHg 61%
13:00 +20°C° 0.1 mm 1 m/S 747 mmHg 60%
14:00 +20°C° 0.1 mm 1 m/S 747 mmHg 61%
15:00 +20°C° 0.1 mm 1 m/S 746 mmHg 62%
16:00 +20°C° 0.1 mm 2 m/S 746 mmHg 64%
17:00 +18°C° 0.1 mm 2 m/S 746 mmHg 70%
18:00 +17°C° 0.1 mm 2 m/S 746 mmHg 76%
19:00 +15°C° 0.1 mm 2 m/S 746 mmHg 83%
20:00 +14°C° 0 mm 2 m/S 746 mmHg 86%
21:00 +13°C° 0 mm 2 m/S 746 mmHg 90%
22:00 +12°C° 0 mm 2 m/S 746 mmHg 93%
23:00 +12°C° 0 mm 2 m/S 746 mmHg 94%

übermorgen, 18 Mai, Dienstag

Zeit Temperatur Niederschläge Wind Luftdruck Luftfeuchtigkeit
00:00 +10°C° 0 mm 2 m/S 746 mmHg 94%
01:00 +10°C° 0 mm 2 m/S 745 mmHg 95%
02:00 +10°C° 0 mm 2 m/S 745 mmHg 95%
03:00 +10°C° 0 mm 1 m/S 745 mmHg 95%
04:00 +10°C° 0 mm 1 m/S 745 mmHg 95%
05:00 +11°C° 0 mm 1 m/S 745 mmHg 93%
06:00 +12°C° 0 mm 2 m/S 745 mmHg 90%
07:00 +13°C° 0 mm 2 m/S 745 mmHg 88%
08:00 +13°C° 0 mm 3 m/S 745 mmHg 83%
09:00 +14°C° 0 mm 3 m/S 745 mmHg 78%
10:00 +15°C° 0 mm 4 m/S 744 mmHg 74%
11:00 +15°C° 0.1 mm 5 m/S 745 mmHg 75%
12:00 +15°C° 0.1 mm 5 m/S 745 mmHg 76%
13:00 +15°C° 0.1 mm 6 m/S 745 mmHg 77%
14:00 +14°C° 0.1 mm 6 m/S 745 mmHg 79%
15:00 +13°C° 0.1 mm 6 m/S 746 mmHg 82%
16:00 +11°C° 0.1 mm 6 m/S 746 mmHg 84%
17:00 +10°C° 0 mm 6 m/S 746 mmHg 86%
18:00 +10°C° 0 mm 6 m/S 747 mmHg 89%
19:00 +9°C° 0 mm 5 m/S 747 mmHg 91%
20:00 +8°C° 0 mm 5 m/S 747 mmHg 92%
21:00 +8°C° 0 mm 4 m/S 748 mmHg 92%
22:00 +8°C° 0 mm 4 m/S 748 mmHg 93%
23:00 +8°C° 0 mm 4 m/S 748 mmHg 93%

19 Mai, Mittwoch

Zeit Temperatur Niederschläge Wind Luftdruck Luftfeuchtigkeit
00:00 +7°C° 0 mm 4 m/S 748 mmHg 94%
01:00 +8°C° 0 mm 3 m/S 748 mmHg 94%
02:00 +8°C° 0 mm 3 m/S 748 mmHg 95%
03:00 +7°C° 0 mm 3 m/S 749 mmHg 96%
04:00 +7°C° 0 mm 3 m/S 749 mmHg 97%
05:00 +7°C° 0 mm 4 m/S 749 mmHg 92%
06:00 +9°C° 0 mm 5 m/S 749 mmHg 87%
07:00 +10°C° 0 mm 5 m/S 750 mmHg 83%
08:00 +12°C° 0 mm 5 m/S 750 mmHg 80%
09:00 +11°C° 0 mm 6 m/S 750 mmHg 77%
10:00 +13°C° 0 mm 6 m/S 751 mmHg 75%
11:00 +13°C° 0 mm 6 m/S 751 mmHg 70%
12:00 +13°C° 0 mm 6 m/S 751 mmHg 65%
13:00 +14°C° 0 mm 7 m/S 751 mmHg 59%
14:00 +13°C° 0 mm 6 m/S 752 mmHg 60%
15:00 +13°C° 0 mm 6 m/S 752 mmHg 61%
16:00 +13°C° 0 mm 6 m/S 752 mmHg 62%
17:00 +10°C° 0 mm 5 m/S 752 mmHg 69%
18:00 +10°C° 0 mm 4 m/S 752 mmHg 75%
19:00 +8°C° 0 mm 3 m/S 752 mmHg 82%
20:00 +7°C° 0 mm 2 m/S 753 mmHg 85%
21:00 +7°C° 0 mm 2 m/S 753 mmHg 89%
22:00 +6°C° 0 mm 2 m/S 753 mmHg 92%
23:00 +5°C° 0 mm 2 m/S 753 mmHg 93%

20 Mai, Donnerstag

Zeit Temperatur Niederschläge Wind Luftdruck Luftfeuchtigkeit
00:00 +5°C° 0 mm 2 m/S 753 mmHg 94%
01:00 +4°C° 0 mm 3 m/S 753 mmHg 95%
02:00 +4°C° 0 mm 3 m/S 753 mmHg 95%
03:00 +4°C° 0 mm 3 m/S 753 mmHg 95%
04:00 +4°C° 0 mm 3 m/S 753 mmHg 95%
05:00 +5°C° 0 mm 3 m/S 753 mmHg 89%
06:00 +7°C° 0 mm 4 m/S 753 mmHg 83%
07:00 +10°C° 0 mm 4 m/S 753 mmHg 77%
08:00 +12°C° 0 mm 4 m/S 753 mmHg 73%
09:00 +13°C° 0 mm 4 m/S 753 mmHg 69%
10:00 +14°C° 0 mm 4 m/S 753 mmHg 65%
11:00 +13°C° 0.3 mm 4 m/S 753 mmHg 69%
12:00 +13°C° 0.3 mm 4 m/S 753 mmHg 72%
13:00 +13°C° 0.3 mm 4 m/S 753 mmHg 76%
14:00 +13°C° 0.3 mm 4 m/S 754 mmHg 74%
15:00 +12°C° 0.3 mm 5 m/S 754 mmHg 73%
16:00 +12°C° 0.3 mm 5 m/S 754 mmHg 71%
17:00 +11°C° 0 mm 4 m/S 754 mmHg 74%
18:00 +10°C° 0 mm 3 m/S 754 mmHg 76%
19:00 +9°C° 0 mm 2 m/S 755 mmHg 79%
20:00 +8°C° 0 mm 2 m/S 755 mmHg 82%
21:00 +6°C° 0 mm 2 m/S 755 mmHg 86%
22:00 +5°C° 0 mm 2 m/S 755 mmHg 89%
23:00 +6°C° 0 mm 2 m/S 755 mmHg 85%

21 Mai, Freitag

Zeit Temperatur Niederschläge Wind Luftdruck Luftfeuchtigkeit
00:00 +5°C° 0 mm 3 m/S 755 mmHg 81%
01:00 +7°C° 0 mm 3 m/S 755 mmHg 77%
02:00 +5°C° 0 mm 3 m/S 755 mmHg 81%
03:00 +4°C° 0 mm 3 m/S 754 mmHg 84%
04:00 +3°C° 0 mm 3 m/S 754 mmHg 88%
05:00 +5°C° 0 mm 4 m/S 754 mmHg 83%
06:00 +7°C° 0 mm 4 m/S 754 mmHg 77%
07:00 +8°C° 0 mm 5 m/S 754 mmHg 72%
08:00 +9°C° 0 mm 5 m/S 754 mmHg 68%
09:00 +10°C° 0 mm 5 m/S 753 mmHg 63%
10:00 +12°C° 0 mm 4 m/S 753 mmHg 59%
11:00 +12°C° 0 mm 4 m/S 753 mmHg 58%
12:00 +12°C° 0 mm 4 m/S 753 mmHg 57%
13:00 +13°C° 0 mm 3 m/S 752 mmHg 56%
14:00 +13°C° 0 mm 3 m/S 752 mmHg 56%
15:00 +13°C° 0 mm 3 m/S 752 mmHg 56%
16:00 +14°C° 0 mm 3 m/S 751 mmHg 56%
17:00 +14°C° 0 mm 2 m/S 751 mmHg 61%
18:00 +13°C° 0 mm 2 m/S 751 mmHg 66%
19:00 +12°C° 0 mm 1 m/S 750 mmHg 71%
20:00 +10°C° 0 mm 2 m/S 750 mmHg 73%
21:00 +9°C° 0 mm 2 m/S 750 mmHg 76%
22:00 +8°C° 0 mm 3 m/S 750 mmHg 79%
23:00 +7°C° 0 mm 3 m/S 750 mmHg 81%
Mehr zeigen

Wir brauchen deine Erlaubnis

Meteoprog und unser Service Anbieter werden persönliche Daten aufbewahren, so wie Cookies, Geräte Bezeichnung oder ähnliche Technologien von deinem Gerät und Prozess, so wie Persönliche Daten Inhalte und Werbungen, genauso wie social Media und den Verkehr zu analysieren.

  • Aufbewahrung und/oder Zugang zu deiner Geräte Informationen.

    Cookies, Geräte Bezeichnung oder andere Informationen, können aufbewahrt oder Zugang zu deinem Gerät erhalten, für den Grund, der oben angegeben wird.

  • Personalisierte Werbung und Inhalte, Messungen, Einblick in das Publikum und Produkt Entwicklung.

    Werbungen und Inhalte können personalisiert werden, basierend auf ein Profil. Mehr Daten können besser personalisierte Werbungen und Inhalte hinzufügen. Werbung und Inhalte können gezeigt und gemessen werden. Einblicke über das Publikum, welche die Werbung gesehen haben und den Inhalt, können abgeleitet werden. So wie Daten können genutzt werden, um es zu verbessern oder die Benutzer Erfahrung zu verbessern das System und die Software.

Wenn du “Ich stimme zu” klickst, erlaubst du uns, die Cookies zu benutzen die Geräte Bezeichnung, den Web oder ähnliche Technologien zu benutzen. Deine Settings, können in deinem Gerät bei deinem Browser geändert werden.

Für den bestimmten Zweck, berechtigten Interessen beruhen darauf, mehr als auf den Inhalt. Du kannst mehr darüber in unseren Privaten und Cookie Politik lesen.